Regional Weather Roundup
Issued by NWS

Home | Current Version | Previous Version | Graphics & Text | Print | Product List | Glossary On
Versions: 1 2 3 4 5 6 7 8 9 10 11 12 13 14 15 16 17 18 19 20 21 22 23 24 25 26 27 28 29 30 31 32 33 34 35 36 37 38 39 40 41 42 43 44 45 46 47 48 49 50
000
ASUS43 KDTX 011910
RWRMI
MICHIGAN HOURLY REGIONAL WEATHER ROUNDUP
NATIONAL WEATHER SERVICE DETROIT/PONTIAC MI
300 PM EDT MON JUN 01 2015

NOTE: "FAIR" INDICATES FEW OR NO CLOUDS BELOW 12,000 FEET WITH NO
SIGNIFICANT WEATHER AND/OR OBSTRUCTION TO VISIBILITY.

MIZ047>049-052>055-059>063-066>070-074>076-081>083-012000-
SOUTHEAST LOWER MICHIGAN

CITY           SKY/WX    TMP DP  RH WIND       PRES   REMARKS
ADRIAN         CLOUDY    61  44  53 E12       30.21F
ALMA           MOSUNNY   63  37  38 NE10G20   30.26F
ANN ARBOR      CLOUDY    63  43  48 NE10      30.20F
BAD AXE        MOSUNNY   58  37  46 NE12G21   30.27S
CARO           MOSUNNY   61  44  53 N8        30.25S
DETROIT CITY   CLOUDY    61  41  47 E10G21    30.21S
DETROIT        CLOUDY    64  40  41 N10       30.21F
FLINT          PTSUNNY   66  38  35 E10       30.22F
GROSSE ILE     CLOUDY    61  46  59 NE7       30.20S
HILLSDALE      CLOUDY    60  44  55 NE8       30.21S
HOWELL         PTSUNNY   63  38  39 NE9G17    30.22S

CITY           SKY/WX    TMP DP  RH WIND       PRES   REMARKS
JACKSON        CLOUDY    62  44  51 NE12      30.21F
LAMBERTVILLE   CLOUDY    59  46  63 E3        30.21F
LANSING        MOSUNNY   63  44  50 NE10G18   30.23F
LAPEER         FAIR      61  37  41 N12G17    30.23F
MASON          PTSUNNY   61  44  54 NE9G16    30.22F
MONROE         CLOUDY    61  45  55 N7        30.19F
MT. CLEMENS    PTSUNNY   60  41  50 NE14      30.19S
PONTIAC        CLOUDY    62  37  39 N15       30.21S
PORT HOPE        N/A     50  44  80 N7        30.27S
PORT HURON     CLOUDY    55  43  62 NE14      30.23S
TRI CITIES     MOSUNNY   62  38  40 NE21      30.27F
MIDLAND        FAIR      64  32  30 NE12G21   30.26F
TROY           CLOUDY    64  32  30 NE14G22   30.23R
SAGINAW HB     MOSUNNY   61  37  41 N15G22    30.26F
$$
MIZ043>046-050>051-056>058-064>065-071>073-077>080-012000-
SOUTHWEST LOWER MICHIGAN

CITY           SKY/WX    TMP DP  RH WIND       PRES   REMARKS
BATTLE CREEK   PTSUNNY   64  43  46 NE9G17    30.21F
BENTON HARBOR  SUNNY     58  44  60 NW7       30.21F
BIG RAPIDS     SUNNY     65  31  27 CALM      30.24F
COLDWATER      PTSUNNY   60  44  54 NE10G16   30.21S
FREMONT        FAIR      65  30  26 NE6       30.23F
HOLLAND        SUNNY     68  41  37 VRB7G16   30.22F
GRAND RAPIDS   MOSUNNY   64  41  42 NE10      30.23F
IONIA          FAIR      63  42  46 NE15      30.23F
KALAMAZOO      MOSUNNY   65  43  44 VRB5      30.21F
LUDINGTON      SUNNY     61  40  45 N13       30.26F
MARSHALL       PTSUNNY   64  43  46 NE5       30.21F
MOUNT PLEASANT SUNNY     65  33  31 NE8       30.24F
MUSKEGON       MOSUNNY   68  32  26 NE13      30.23F
SOUTH HAVEN    SUNNY     66  39  36 E9        30.20F
$$
MIZ016>042-012000-
NORTHERN LOWER MICHIGAN

CITY           SKY/WX    TMP DP  RH WIND       PRES   REMARKS
ALPENA         SUNNY     62  32  32 VRB3      30.30F
BEAVER ISLAND  SUNNY     62  32  33 E10       30.31F
BELLAIRE       SUNNY     67  32  27 NW7       30.26F
CADILLAC       SUNNY     67  35  31 E9        30.24F
CHARLEVOIX     SUNNY     56  40  55 N9        30.32F
FRANKFORT      SUNNY     62  33  32 N13G18    30.26F
GAYLORD        SUNNY     63  33  32 VRB5      30.27F
GRAYLING       SUNNY     65  32  29 CALM      30.26F
HARBOR SPRINGS SUNNY     63  32  32 E9G17     30.29F
HOUGHTON LAKE  SUNNY     65  34  31 E8        30.25F
MANISTEE       SUNNY     57  39  51 NW16      30.25F
OSCODA         SUNNY     60  34  37 NE12G18   30.28F
PELLSTON       SUNNY     64  32  30 NE13G18   30.30F
ROGERS CITY    SUNNY     56  36  46 NE5       30.32F
TRAVERSE CITY  MOSUNNY   62  38  40 N10       30.27F
$$
MIZ007>008-015-012000-
EASTERN UPPER MICHIGAN

CITY           SKY/WX    TMP DP  RH WIND       PRES   REMARKS
KINROSS        SUNNY     64  30  27 S5        30.29F
MACKINAC ISLAN SUNNY     59  32  36 SE8       30.30F
NEWBERRY       SUNNY     64  31  28 CALM      30.29F
S. S. MARIE    SUNNY     65  33  30 VRB7      30.28F
MUNISING         N/A     49  38  65 NE10      30.31F
$$
MIZ004>006-011>014-085-012000-
CENTRAL UPPER MICHIGAN

CITY           SKY/WX    TMP DP  RH WIND       PRES   REMARKS
MANISTIQUE     SUNNY     60  32  35 S7        30.30F
ESCANABA       SUNNY     59  34  38 SE10      30.29F
MENOMINEE      SUNNY     59  37  44 E9        30.30F
SAWYER-GWINN   SUNNY     63  34  34 NE13      30.28F
$$
MIZ001>003-009>011-084-012000-
WESTERN UPPER MICHIGAN

CITY           SKY/WX    TMP DP  RH WIND       PRES   REMARKS
IRON MOUNTAIN  SUNNY     66  35  31 S10       30.27F
HOUGHTON       SUNNY     62  31  31 E10       30.28F
COPPER HARBOR    N/A     48  35  60 E6        30.31F
IRONWOOD       SUNNY     63  37  39 N12       30.22F
$$

ABBREVIATIONS USED IN REMARKS
   TC - TEMPERATURE IN CELSIUS
  WCI - WIND CHILL INDEX
   HX - HEAT INDEX
  VSB - VISIBILITY




USA.gov is the U.S. government's official web portal to all federal, state and local government web resources and services.